Погода в Балашове

Хотите узнать прогноз погоды в Балашове? Тогда Вам сюда: Погода в Балашове

Поиск расширенной информации на нашем сайте:

Полезная информация:

Новости сайта



02.01.2020
Опубликован Долгосрочный прогноз погоды по городам России и ближнего зарубежья на январь 2020 года.
Карты: Прогноз на январь и февраль 2020 года, Сравнение прогнозируемой аномалии приземной температуры воздуха на январь 2020 года по разным моделям.




Погода в Балашове - сегодня

Время (UTC), дата Ветер
(°,м/с) 
Видим.   Явления Облачность Т
(°С)
Тd
(°С)
f(%) Тe
(°С)
Pmin
(гПа)
dP
(гПа)
Po
(мм)
O2
(г/м3)
Тmin Tmax R s Состояние
почвы
21 15.01.22 280 (З) 10 км  слаб. снег  10/0 средняя 
[As op]
-3.7 -4.8 92 -7  995.8  732  300           
00 16.01.22 290 (З) 10 км  слаб. снег  10/0 средняя 
[As op]
-3 -4.2 91 -6  997.4  1.7  733  299           
03 16.01.22 310 (СЗ) 5-10{10}  10 км  слаб. снег  10/0 средняя 
[As op]
-2.9 -4.1 91 -6  999  1.5  734  300  -4.2    0.4  39  равномерный
сухой снег
100% 
06 16.01.22 300 (СЗ) 5{11}  20000 м  {снег}  10/0 средняя 
[Ac As]
-3.5 -5.3 87 -7  1002.6  2.8  737  301           
09 16.01.22 310 (СЗ) 7-11{11}  20000 м    9/0 средняя 
[Ac trans]
-3.1 -5.3 85 -8  1004.6  739  302           
12 16.01.22 310 (СЗ) 5{12}  20000 м    9/0 средняя 
[Ac trans]
-3.2 -5.5 84 -7  1006.9  1.7  740  302           
15 16.01.22 280 (З) 20000 м    ясно 
-6.4 -7.3 93 -9  1009.9  2.7  742  307    -2.6  0.0     
18 16.01.22 260 (З) 20000 м    ясно 
-9 -9.5 96 -12  1011.9  1.7  744  311           
21 16.01.22 250 (З) 20000 м    ясно 
-11.7 -12.8 92 -14  1012.8  0.6  744  314           
00 17.01.22 190 (Ю) 20000 м  [диам. изморози 1 мм]  10/10 1080 м 
[Sc]
-12.2 -13.4 91 -14  1012.9  0.1  744  315           
03 17.01.22 210 (ЮЗ) 20000 м  [диам. изморози 3 мм]  9/0 средняя 
[Ac trans]
-10.8 -11.8 92 -14  1011.6  -1.2  743  313  -15.8      38  равномерный
сухой снег
100% 
06 17.01.22 200 (Ю) 20000 м  [диам. изморози 3 мм]  9/9 1050 м 
[Sc]
-7.4 -8.5 92 -10  1010.5  -0.8  743  308           
09 17.01.22 200 (Ю) 4{10}  20000 м    10/4 1000 м средняя 
[Sc|Ac und]
-4.3 -5.4 92 -7  1008  -0.8  741  304           
12 17.01.22 200 (Ю) 5{11}  20000 м    10/8 800 м средняя 
[Sc|Ac und]
-3.1 -4.5 90 -7  1004.8  -3.1  739  302           
15 17.01.22 200 (Ю) 5-11{12}  20000 м    10/0 средняя 
[Ac As]
-3.5 -4.8 91 -7  1002.8  -1.9  737  301    -3       
18 17.01.22 190 (Ю) 5-11{12}  10 км  слаб. снег  10/8 330 м средняя 
[Frnb|Ac As]
-3.3 -4.5 91 -7  1001.5  -1.3  736  301           
21 17.01.22 180 (Ю) 6-10{13}  10 км  слаб. снег  10/6 240 м средняя 
[Frnb|Ac As]
-2.1 -2.7 96 -6  999.9  -1.4  735  299           
00 18.01.22 190 (Ю) 5-10{12}  10 км  слаб. снег  10/6 300 м средняя 
[Frnb|Ac As]
-1.2 -1.5 98 -4  999.4  -0.5  735  298           
03 18.01.22 180 (Ю) 5-11{11}  20000 м  в посл. час снег  10/8 210 м средняя 
[Frnb|Ac As]
-0.1 -0.3 99 -3  998.2  -0.5  734  296  -3.7    38  равномерный
мокрый или
старый снег
100% 
06 18.01.22 190 (Ю) 5-13{13}  20000 м  {снег}  10/8 270 м средняя 
[Frnb|Ac As]
+0.3 -0.2 96 -3  999  0.8  735  296           
09 18.01.22 190 (Ю) 6-12{14}  20000 м  слаб. снег  10/8 300 м средняя 
[Frnb|Ac As]
+0.6 -0.4 93 -3  1000.5  1.5  736  296           
12 18.01.22 180 (Ю) 5{14}  20000 м  слаб. снег  10/8 800 м средняя 
[Frnb|Ac As]
+0.3 -0.7 93 -3  1002.4  1.8  737  297           
15 18.01.22 170 (Ю) 3{11}  20000 м  {снег}  8/0 средняя 
[Ac trans]
-0.1 -1 94 -2  1004.8  2.3  739  298    +0.8  0.4     
18 18.01.22 160 (Ю) 10 км  слаб. снег  10/0 средняя 
[As op]
-0.9 -1.4 96 -3  1006.7  1.9  740  299           
21 18.01.22 170 (Ю) 10 км  слаб. снег  10/0 средняя 
[As op]
-1 -1.8 94 -2  1008.2  1.5  741  300           
Время (UTC), дата Ветер
(°,м/с) 
Видим.   Явления Облачность Т
(°С)
Тd
(°С)
f(%) Тe
(°С)
Pmin
(гПа)
dP
(гПа)
Po
(мм)
O2
(г/м3)
Тmin Tmax R s Состояние
почвы

Для получения пояснительной информации подведите курсор к названию столбца.

ПОГОДА в Балашове - архив

Всё, что Вы хотите узнать о погоде в Балашове - удобно и подробно!

Выберите нужную дату (начиная с 1 января 2019* года) и нажмите кнопку "Найти".
Будут отображены архивные сводки погоды по пункту Балашов, начиная с указанной даты.


Отображать данные в формате CSV (для использования в таблицах Excel)


Внимание! Наш архив погоды предназначен исключительно для личного некоммерческого использования в познавательных целях. Если Вам необходимы официальные справки о состоянии погоды (для производственных, юридических, коммерческих и т.п. целей), обращайтесь в органы Росгидромета.

*Примечание: данная дата относится к архиву по метеостанциям СССР (Россия, СНГ, Балтия).
Архив по метеостанциям Зарубежной Европы и Азии (кроме Китая) хранится 10 дней, по другим регионам земного шара (Китай, Африка, Америка, Австралия, Океания) - 1 день.

Балашов - район местоположения метеостанции


Название, широта, долгота, высота метеостанции:
Балашов 51.6°ш. 43.2°д. 159 м над ур. моря [Российская Федерация]

Дополнительная информация

В oтличие oт бoльшинства пoгoдных сайтoв мы публикуем пoдрoбную метеoинфoрмацию в детальнoм прoфессиoнальнoм фoрмате.

Характеристики температуры и влажнoсти вoздуха измеряются на высoте 2 м в тени вдали oт зданий и деревьев.
Скoрoсть ветра измеряется на высoте 10 м (на урoвне рoста челoвека скoрoсть ветра ниже в 1.5-2 раза). Если метеoстанция нахoдится в гoрoде или в лесу, тo скoрoсть ветра занижена на 2-4 м/с пo сравнению с oткрытым местoм. Скoрoсть ветра над акватoриями крупных рек и oзёр, а также на вершинах хoлмoв на 2-5 м/с выше, чем в oбычных услoвиях.
Атмoсфернoе давление в разных тoчках местнoсти мoжет значительнo oтличаться oт давления на метеoстанции, в зависимoсти oт услoвий рельефа (при пoдъёме на 10 м давление пoнижается примернo на 1 мм рт.ст.).